Погода в Октябрьском

Россия / Чувашская Республика     55°54′15″N   47°49′00″E
темп.,
°C
ветер,
м/с
пор.,
м/с
влажн.,
%
обл.,
%
осадки,
мм/ч
давл.,
гПа
погр.,
м
13 апреля, вт
вт1300:00+4вюв399491 0.0 1036153
03:00+4юв2297100 0.0 103621
06:00+3вюв23100100 0.1 103562
09:00+6юв38100100 0.1 1035225
12:00+10ююв469386 0.0 1034272
15:00+15ю586912 0.0 1032600
18:00+11ююв487550 0.0 1031124
21:00+8ю467663 0.0 103168
14 апреля, ср
ср1400:00+7ю457511 0.0 103154
03:00+6ю347399 0.0 103041
06:00+6ю346949 0.0 103052
09:00+12ю46545 0.0 1029277
12:00+16ю564385 0.0 1027761
15:00+18ю57455 0.0 10261001
18:00+14ю36705 0.0 1024118
21:00+11ю36845 0.0 102477
15 апреля, чт
чт1500:00+10ю34880 0.0 102361
03:00+9ю33890 0.0 102235
06:00+9ю34890 0.0 102179
09:00+14ююз35691 0.0 1021424
12:00+17ююз335288 0.0 10201338
15:00+18юз2343100 0.0 10191829
18:00+15юз1154100 0.0 101811
21:00+12сз116162 0.0 101910
16 апреля, пт
пт1600:00+10с2267100 0.0 101915
03:00+8ссв4995100 0.0 1020216
06:00+7св51089100 0.0 1021342
09:00+9всв577698 0.0 1022519
12:00+12всв566499 0.0 1023877
15:00+13св565870 0.0 10231247
18:00+11св586467 0.0 1024408
21:00+7св5115965 0.0 1026283
17 апреля, сб
сб1700:00+4всв4106525 0.0 1027248
03:00+2св387113 0.0 1027163
06:00+2св26725 0.0 1028163
09:00+8всв355027 0.0 1028668
12:00+11св44385 0.0 10281417
15:00+12ссв443526 0.0 10261579
18:00+9ссв35496 0.0 1027120
21:00+6с22574 0.0 102713